User: anonymous   Login
Location: Frizzleburg
(41.0764°N, 80.4548°W)
Time: 14:35:16
(UTC+00:00)
Language:

Cosmos 1725 Rocket - Orbit

View from above orbital plane
View from above orbital plane
View from above satellite
View from above satellite

Ground track
Ground track

The orbit data is extracted from the following two-line orbital elements,

1 16494U 86005B   20024.52628875 -.00000009 +00000-0 -25070-4 0  9993
2 16494 082.9301 084.1852 0020979 097.4260 014.5671 13.76493338708536
Epoch (UTC): 24 January 2020 12:37:51
Eccentricity: 0.0020979
inclination: 82.9301°
perigee height: 961 km
apogee height: 992 km
right ascension of ascending node: 84.1852°
argument of perigee: 97.4260°
revolutions per day: 13.76493338
mean anomaly at epoch: 14.5671°
orbit number at epoch: 70853

The dashed part of the orbit path shows where the satellite is in the earth's shadow,  

DLR